Location: Unspecified
(0.0000°N, 0.0000°E)
Time: 01:14:59
(UTC+00:00)

N. Korean satellite - Pass Details

Date: 05 July 2020
Orbit: 454 x 506 km, 97.2° (Epoch: 08 July)

Event Time Altitude Azimuth Distance (km) Brightness Sun altitude
Rises 05:08:07 0° 14° (NNE) 2,453 10.7 -13.0°
Reaches altitude 10° 05:10:09 10° 17° (NNE) 1,582 9.7 -12.6°
Maximum altitude 05:13:31 69° 101° (E) 486 6.7 -11.8°
Drops below altitude 10° 05:16:54 10° 185° (S) 1,591 8.9 -11.0°
Sets 05:18:57 0° 187° (S) 2,470 9.9 -10.5°
